Wind_Speed
20 21 21 21 21 22 22 20 20 21 21 21 22 21 21 21 20 20 20 20 19 19 18 17 16 16 15 15 14 14 14 14 13 13 13 12 12 12 11 11 11 12 12 11
19 20 21 22 22 22 21 21 20 20 21 21 21 21 21 21 21 21 20 19 19 19 18 18 18 17 16 16 16 16 16 15 15 14 14 13 13 13 13 13 13 13 13 12
19 20 21 22 22 21 21 20 20 20 20 21 21 21 20 20 21 21 20 20 20 20 19 18 18 18 18 18 18 17 17 17 16 15 14 14 14 14 14 14 14 13 13 13
19 20 21 22 22 21 21 21 21 21 20 20 21 19 20 20 20 20 20 20 19 20 20 19 19 18 18 18 17 17 17 17 17 17 16 16 15 16 16 15 14 14 14 15
19 20 21 22 22 22 22 22 22 22 21 22 21 20 19 20 20 20 20 19 19 20 20 20 19 19 19 18 18 17 17 17 18 17 17 17 16 16 17 16 16 16 16 15
20 21 21 22 22 23 23 22 22 21 21 22 21 20 19 20 19 19 19 19 19 19 19 19 19 19 18 18 18 18 17 17 18 18 18 18 18 18 18 17 17 17 17 16
20 20 21 21 22 22 22 21 20 20 21 21 21 22 21 19 19 19 19 19 19 19 18 18 17 17 17 18 18 18 18 19 19 19 19 18 18 18 18 18 17 17 17 17
20 20 20 20 21 22 22 21 21 20 19 19 21 22 22 20 20 19 19 19 18 18 18 18 18 18 17 18 18 18 19 19 20 20 20 19 19 18 19 19 18 18 18 18
19 20 21 21 21 22 22 22 21 21 21 20 21 22 22 20 19 19 19 19 18 18 18 18 18 18 18 17 18 18 19 19 20 20 20 19 18 19 19 19 19 19 18 18
20 20 21 21 22 23 23 22 23 22 21 20 21 21 20 20 19 19 19 19 19 19 19 19 19 18 18 18 18 19 18 19 19 19 19 19 19 19 19 19 19 19 19 19
21 21 21 21 21 21 22 23 23 23 23 21 20 19 21 21 20 19 20 20 19 19 20 20 20 19 18 18 18 18 18 18 18 18 18 19 19 20 20 20 20 20 20 20
21 22 21 21 21 22 22 23 23 24 24 23 20 20 22 22 21 20 20 21 21 21 20 20 20 20 19 19 19 18 18 18 17 17 18 18 19 20 21 21 21 21 21 21
21 21 20 20 20 21 22 23 23 24 24 23 21 20 22 22 21 21 21 21 22 22 21 21 20 20 20 20 19 19 19 18 18 18 19 19 20 20 21 22 23 23 23 24
21 21 21 20 20 21 21 22 23 23 23 23 22 21 21 21 20 21 21 22 23 22 22 22 21 21 21 20 20 21 20 20 20 20 20 21 21 21 21 22 24 24 23 23
22 22 22 22 22 22 22 22 23 23 23 22 21 22 22 21 21 21 21 21 22 22 22 22 22 22 22 22 22 22 22 21 21 21 21 22 22 23 23 24 24 24 24 23
21 21 21 22 22 23 23 23 23 23 23 23 23 22 22 22 21 21 21 21 21 22 22 23 23 23 23 23 23 23 22 22 22 22 23 23 24 24 25 26 26 25 25 25
21 21 21 21 21 23 24 23 23 23 23 23 23 22 22 22 21 22 22 21 22 23 22 23 23 24 24 24 23 23 23 23 23 23 24 24 25 25 25 26 27 27 27 27
21 21 21 21 21 23 23 22 22 23 23 23 23 23 23 22 22 22 23 23 23 23 24 24 24 25 25 25 24 24 24 24 24 24 25 25 25 26 26 27 27 28 28 28
22 21 22 21 22 23 23 22 22 23 23 23 23 23 23 22 23 23 23 23 23 24 24 24 24 24 24 25 25 24 24 24 24 25 25 26 26 26 27 27 27 28 28 29
23 23 23 23 22 24 24 23 23 23 23 23 23 23 23 23 23 23 23 23 24 24 24 24 24 24 25 26 26 25 25 25 25 25 26 26 27 27 27 27 27 28 28 29
24 24 24 24 24 25 25 24 23 24 25 24 24 24 24 24 25 24 24 24 24 24 25 25 25 25 25 25 27 27 27 26 26 26 26 26 26 27 27 28 28 28 29 29
24 25 25 25 26 26 26 25 25 26 25 25 25 25 25 25 26 25 24 24 25 26 25 25 26 26 25 26 26 26 26 26 26 26 27 26 27 27 28 28 29 29 29 29
24 25 25 25 26 26 26 25 25 25 25 25 26 26 25 25 24 24 24 24 25 25 25 26 26 27 26 26 27 26 25 25 26 26 26 26 26 27 28 27 27 28 28 28
24 25 25 25 25 25 26 26 25 25 25 25 25 25 25 25 24 24 24 24 25 25 25 25 25 25 25 26 26 25 26 26 26 26 26 26 26 27 27 27 27 28 27 27
22 22 23 24 24 25 25 25 25 24 24 25 26 26 25 25 25 24 24 24 25 25 25 25 25 25 25 25 26 26 26 26 26 26 27 26 25 25 25 26 26 26 26 25
21 22 22 22 22 22 21 22 22 23 24 25 25 25 25 25 25 25 25 25 25 25 25 25 25 25 25 24 25 25 25 25 25 25 25 26 25 25 24 24 24 24 24 24
Wind_Direction
242 240 239 239 237 237 237 239 242 244 245 247 247 247 249 252 255 259 263 265 264 265 267 269 273 273 276 276 274 268 266 265 266 268 270 270 263 261 262 261 258 257 259 262
242 239 237 236 235 237 238 239 241 244 245 247 249 249 249 253 254 258 262 264 263 262 267 269 269 271 274 275 272 268 265 265 265 265 266 265 262 260 260 259 259 261 260 262
241 239 235 234 235 236 237 239 240 243 246 248 249 251 252 253 255 258 260 260 262 263 264 267 266 268 270 272 272 271 268 265 264 264 263 261 258 258 258 259 260 260 260 260
239 237 235 233 234 234 237 239 241 244 247 250 250 253 253 253 255 257 260 262 263 264 264 263 263 267 266 267 269 270 267 264 263 262 263 263 259 255 256 259 260 261 263 262
242 238 234 234 233 233 235 238 242 245 248 250 253 254 258 254 253 256 260 263 264 265 263 262 263 265 264 264 265 268 267 265 263 262 261 260 258 255 256 260 260 261 263 262
241 238 235 235 235 235 237 240 243 246 249 252 253 254 257 256 255 257 260 263 264 263 260 260 262 264 265 262 262 263 263 264 263 261 259 258 257 255 255 259 261 261 261 261
241 240 238 237 237 237 237 239 243 247 250 254 254 255 256 255 258 259 257 260 264 262 261 261 263 266 267 262 263 263 262 263 262 260 260 258 256 255 253 257 260 260 260 260
242 241 240 238 237 238 238 238 240 243 248 254 256 257 257 255 255 257 257 259 263 262 261 261 263 266 266 263 263 262 262 263 263 262 260 258 255 254 254 257 258 258 258 259
240 240 241 239 238 238 238 239 240 245 250 252 255 257 260 256 253 254 256 258 261 262 262 263 264 266 264 262 263 262 259 260 261 261 258 256 256 254 254 256 255 256 257 260
239 241 242 242 241 239 239 240 241 243 247 253 259 261 261 255 253 254 255 257 259 260 261 261 262 264 263 262 263 262 261 260 258 257 257 255 254 253 252 254 255 255 256 259
241 241 243 244 242 241 240 239 241 243 245 250 258 262 259 260 257 256 255 255 257 258 260 260 260 261 262 264 263 260 262 260 258 258 258 256 256 255 253 253 255 257 256 258
242 242 242 244 244 243 242 242 242 244 246 250 256 262 260 260 257 257 256 254 256 257 258 257 258 259 260 262 262 262 263 264 262 261 261 259 260 259 256 253 254 258 259 260
241 240 241 243 245 246 245 244 243 244 247 250 252 258 261 260 258 256 256 255 257 256 255 256 256 259 261 260 260 260 260 261 261 261 258 257 258 260 258 255 256 259 261 262
240 240 239 239 242 245 245 246 246 245 247 250 252 254 259 260 258 256 256 256 256 254 253 255 255 258 261 260 260 260 260 262 263 263 261 260 259 259 260 260 261 262 263 264
241 241 240 240 242 245 246 245 246 247 248 251 254 254 257 259 259 258 257 257 257 256 253 254 256 257 259 260 260 260 261 263 264 265 265 264 262 262 262 263 263 264 264 264
243 242 242 243 244 245 246 245 246 246 248 251 253 255 257 260 259 258 259 260 259 257 255 255 256 255 257 259 259 260 263 265 264 264 264 265 265 264 264 264 264 264 264 263
246 246 245 247 246 246 246 246 248 249 251 252 254 256 258 259 260 260 258 259 260 256 256 256 257 256 256 257 260 261 263 264 264 264 265 265 265 265 265 265 264 263 264 264
245 246 247 249 247 248 249 247 249 251 252 252 254 255 258 261 260 260 258 259 260 256 255 256 256 256 256 257 259 261 261 263 264 264 265 265 266 265 265 266 265 265 265 265
244 246 247 249 251 251 250 249 250 251 253 254 257 257 258 261 260 259 259 259 260 258 256 255 256 257 258 257 258 259 261 262 263 265 266 266 266 266 266 267 268 267 267 267
244 246 248 249 251 252 252 250 251 253 255 255 258 260 261 262 262 260 260 259 259 258 256 255 256 258 259 258 257 257 258 260 263 265 266 265 266 267 267 267 267 268 269 270
246 247 248 250 251 251 252 252 253 253 255 257 258 260 261 262 264 263 261 260 258 258 257 256 257 258 260 260 259 258 258 260 263 264 265 265 266 267 267 267 268 269 270 270
249 249 249 251 252 252 253 254 253 254 256 257 259 261 262 264 265 264 261 259 257 257 258 258 259 258 260 261 260 258 260 261 263 264 264 264 265 267 267 268 269 269 269 269
250 250 250 251 252 253 254 254 255 256 258 259 260 261 262 263 264 263 260 258 256 257 259 259 261 260 262 261 259 259 260 261 263 264 264 263 265 266 267 269 270 270 270 269
253 252 252 254 254 253 253 254 255 256 258 260 261 261 261 261 261 261 260 259 258 259 261 261 261 261 262 260 258 259 259 261 264 265 265 267 267 266 268 269 270 271 272 270
253 252 252 253 255 255 254 255 255 256 257 258 259 259 259 259 259 260 261 262 260 259 260 261 261 261 262 261 258 259 261 263 262 264 266 268 267 266 267 269 271 271 270 268
252 251 251 252 253 253 253 254 254 255 256 258 259 257 255 255 257 259 260 262 262 261 261 260 260 260 260 260 259 260 262 263 264 266 265 265 265 266 267 269 270 271 271 271
Height
5829 5832 5835 5837 5840 5843 5845 5848 5850 5851 5852 5854 5856 5858 5859 5859 5861 5862 5862 5862 5863 5863 5862 5862 5862 5862 5861 5861 5861 5861 5860 5860 5859 5859 5859 5858 5858 5858 5858 5858 5859 5859 5859 5859
5826 5827 5830 5832 5834 5837 5840 5843 5845 5846 5847 5849 5851 5853 5854 5855 5856 5857 5857 5858 5858 5858 5858 5858 5858 5858 5857 5857 5857 5857 5857 5856 5856 5856 5856 5855 5855 5855 5856 5856 5856 5856 5857 5857
5821 5824 5825 5827 5829 5832 5835 5838 5840 5842 5843 5844 5846 5848 5849 5850 5851 5852 5852 5853 5853 5853 5853 5853 5853 5853 5853 5853 5853 5853 5852 5852 5852 5852 5852 5852 5852 5852 5853 5853 5853 5854 5854 5854
5816 5818 5820 5822 5825 5828 5831 5833 5835 5836 5839 5840 5842 5844 5845 5845 5846 5847 5847 5847 5847 5847 5847 5848 5848 5848 5848 5848 5848 5848 5848 5848 5848 5848 5848 5848 5848 5849 5849 5850 5850 5850 5850 5850
5811 5813 5815 5817 5820 5823 5826 5828 5830 5832 5833 5835 5837 5839 5841 5840 5841 5842 5842 5842 5842 5842 5842 5842 5842 5843 5843 5844 5844 5844 5844 5844 5844 5844 5844 5844 5844 5845 5846 5846 5846 5847 5847 5847
5806 5808 5810 5813 5815 5818 5820 5823 5825 5827 5829 5830 5832 5834 5836 5835 5836 5837 5837 5837 5837 5836 5837 5837 5837 5838 5838 5838 5839 5839 5839 5839 5839 5839 5839 5840 5840 5841 5842 5842 5843 5843 5843 5843
5801 5803 5805 5808 5810 5813 5816 5819 5822 5823 5825 5826 5827 5828 5830 5831 5831 5832 5832 5832 5832 5831 5832 5832 5832 5833 5833 5833 5834 5834 5834 5834 5835 5835 5835 5835 5836 5836 5837 5838 5838 5839 5839 5839
5798 5800 5801 5803 5806 5808 5811 5814 5818 5820 5822 5823 5822 5822 5824 5825 5826 5826 5826 5827 5827 5827 5827 5827 5828 5828 5828 5828 5829 5829 5829 5830 5830 5830 5831 5831 5831 5832 5833 5833 5834 5834 5835 5835
5794 5796 5797 5799 5801 5803 5805 5808 5811 5814 5815 5816 5817 5818 5818 5819 5820 5821 5821 5822 5822 5822 5822 5823 5823 5823 5824 5824 5824 5824 5824 5825 5825 5825 5826 5826 5827 5827 5828 5828 5829 5829 5830 5831
5788 5791 5792 5794 5796 5798 5800 5803 5805 5807 5809 5811 5812 5813 5814 5814 5815 5816 5816 5817 5818 5818 5818 5818 5818 5818 5819 5819 5819 5819 5820 5820 5820 5820 5821 5821 5822 5822 5823 5823 5824 5825 5825 5826
5783 5785 5787 5789 5790 5793 5795 5797 5799 5801 5804 5806 5808 5810 5808 5808 5809 5810 5811 5812 5812 5813 5813 5813 5813 5814 5814 5814 5814 5815 5815 5815 5815 5816 5816 5817 5817 5817 5818 5819 5820 5820 5821 5821
5777 5779 5781 5784 5785 5787 5789 5791 5794 5796 5797 5799 5802 5805 5801 5802 5803 5804 5805 5806 5807 5807 5808 5808 5809 5809 5809 5810 5810 5810 5810 5811 5811 5811 5812 5812 5812 5813 5813 5814 5815 5815 5816 5816
5771 5774 5776 5779 5782 5782 5783 5785 5787 5789 5791 5793 5795 5799 5795 5796 5797 5798 5799 5800 5801 5801 5802 5803 5804 5804 5805 5805 5805 5805 5805 5806 5806 5806 5806 5807 5807 5808 5808 5809 5809 5810 5810 5810
5766 5768 5772 5775 5776 5776 5777 5779 5781 5783 5785 5787 5789 5790 5789 5790 5791 5792 5792 5793 5794 5795 5796 5797 5798 5799 5799 5800 5800 5800 5800 5801 5801 5801 5801 5801 5802 5802 5803 5803 5803 5803 5803 5803
5760 5762 5765 5767 5768 5770 5772 5773 5775 5777 5779 5781 5782 5783 5783 5783 5784 5785 5786 5786 5787 5788 5789 5791 5792 5793 5793 5794 5794 5794 5795 5795 5795 5795 5796 5796 5796 5796 5797 5797 5797 5797 5797 5797
5754 5757 5758 5760 5762 5763 5765 5767 5768 5770 5772 5773 5775 5776 5777 5777 5777 5778 5779 5780 5781 5782 5783 5784 5785 5786 5787 5787 5788 5788 5788 5789 5789 5790 5790 5790 5790 5790 5790 5790 5790 5790 5790 5790
5748 5751 5753 5754 5756 5756 5758 5761 5762 5764 5765 5766 5768 5770 5770 5770 5771 5771 5772 5773 5774 5775 5776 5777 5778 5779 5780 5781 5782 5782 5782 5783 5783 5784 5784 5784 5784 5784 5783 5783 5783 5783 5783 5783
5742 5744 5746 5748 5750 5750 5754 5754 5755 5756 5758 5759 5760 5762 5763 5763 5764 5764 5765 5766 5767 5767 5768 5769 5770 5771 5772 5773 5774 5775 5775 5775 5776 5776 5777 5777 5777 5777 5776 5776 5776 5776 5776 5775
5736 5738 5740 5741 5742 5744 5746 5747 5748 5750 5751 5752 5754 5755 5756 5756 5757 5757 5758 5759 5759 5760 5760 5761 5762 5763 5765 5766 5767 5768 5768 5768 5769 5769 5769 5769 5770 5770 5769 5769 5769 5768 5768 5767
5730 5732 5734 5735 5736 5738 5740 5740 5741 5744 5744 5746 5747 5748 5748 5749 5750 5751 5751 5751 5752 5752 5753 5753 5755 5756 5757 5758 5759 5760 5761 5761 5761 5762 5762 5762 5762 5762 5762 5761 5761 5760 5760 5759
5723 5724 5726 5727 5728 5730 5731 5733 5735 5737 5738 5738 5739 5740 5741 5741 5742 5743 5743 5743 5744 5744 5745 5746 5747 5748 5749 5750 5751 5752 5753 5753 5754 5754 5754 5754 5754 5754 5753 5753 5753 5753 5752 5751
5715 5717 5718 5719 5721 5724 5723 5725 5727 5728 5729 5730 5731 5732 5733 5733 5734 5734 5735 5735 5736 5736 5737 5738 5738 5740 5741 5741 5742 5743 5745 5745 5745 5746 5746 5746 5746 5745 5745 5745 5744 5744 5744 5743
5707 5709 5710 5712 5714 5714 5715 5717 5718 5719 5721 5722 5723 5724 5725 5725 5726 5726 5727 5727 5727 5728 5729 5729 5730 5731 5732 5733 5734 5735 5736 5737 5737 5737 5737 5737 5737 5737 5737 5737 5736 5736 5735 5735
5700 5701 5702 5703 5705 5706 5707 5708 5710 5711 5712 5713 5714 5715 5716 5717 5717 5718 5718 5719 5720 5720 5721 5721 5722 5723 5724 5724 5725 5727 5728 5729 5729 5729 5729 5729 5729 5729 5728 5728 5728 5727 5727 5727
5693 5694 5695 5695 5697 5698 5699 5700 5702 5703 5704 5705 5706 5707 5707 5708 5709 5710 5710 5711 5711 5712 5713 5713 5714 5715 5715 5716 5717 5719 5720 5720 5721 5721 5721 5721 5721 5721 5720 5720 5720 5720 5719 5719
5686 5687 5688 5689 5690 5691 5692 5693 5694 5695 5696 5697 5698 5698 5699 5700 5701 5701 5702 5702 5702 5703 5704 5704 5705 5706 5707 5708 5709 5710 5711 5712 5712 5713 5713 5713 5713 5713 5713 5712 5712 5712 5712 5712